Location: Poughquag
(41.6090°N, 73.6820°W)
Time: 02:19:45
(UTC-05:00)

Courier 1B Rocket - All Passes

Search period start: 17 February 2020 00:00
Search period end: 27 February 2020 00:00
Orbit: 920 x 1202 km, 28.2° (Epoch: 16 February)

Date Brightness Start Highest point End Pass type
(mag) Time Alt. Az. Time Alt. Az. Time Alt. Az.
17 Feb - 01:02:35 10° S 01:05:18 13° SSE 01:08:05 10° SE night (unlit)
17 Feb - 02:52:25 10° SW 02:57:41 24° S 03:03:14 10° ESE visible
17 Feb - 04:44:39 10° WSW 04:50:23 27° S 04:56:25 10° SE visible
17 Feb - 06:38:19 10° WSW 06:43:05 18° SSW 06:48:01 10° SSE daylight
18 Feb - 01:52:12 10° SSW 01:56:54 21° SSE 02:01:49 10° ESE visible
18 Feb - 03:43:54 10° SW 03:49:29 27° S 03:55:23 10° SE visible
18 Feb - 05:36:59 10° WSW 05:42:12 22° SSW 05:47:37 10° SSE visible
18 Feb - 07:34:33 10° SSW 07:34:46 10° SSW 07:34:59 10° SSW daylight
19 Feb - 00:52:20 10° SSW 00:56:11 16° SSE 01:00:09 10° ESE night (unlit)
19 Feb - 02:43:19 10° SW 02:48:38 26° S 02:54:16 10° ESE visible
19 Feb - 04:35:57 10° WSW 04:41:19 24° S 04:46:57 10° SE visible
19 Feb - 06:30:32 10° SW 06:33:56 14° SSW 06:37:24 10° S daylight
19 Feb - 23:53:10 10° S 23:55:30 12° SSE 23:57:52 10° SE night (unlit)
20 Feb - 01:42:54 10° SW 01:47:51 23° S 01:53:02 10° ESE night (unlit)
20 Feb - 03:35:05 10° WSW 03:40:27 26° S 03:46:07 10° SE visible
20 Feb - 05:28:45 10° WSW 05:33:05 17° SSW 05:37:35 10° SSE visible
21 Feb - 00:42:41 10° SSW 00:47:06 20° SSE 00:51:41 10° ESE night (unlit)
21 Feb - 02:34:23 10° SW 02:39:37 26° S 02:45:08 10° SE visible
21 Feb - 04:27:28 10° WSW 04:32:15 20° SSW 04:37:15 10° SSE visible
21 Feb - 23:42:49 10° SSW 23:46:25 16° SSE 23:50:06 10° SE night (unlit)
22 Feb - 01:33:48 10° SW 01:38:50 25° S 01:44:06 10° ESE night (unlit)
22 Feb - 03:26:26 10° WSW 03:31:26 23° S 03:36:40 10° SE visible
22 Feb - 05:21:14 10° SW 05:23:58 12° SSW 05:26:45 10° S visible
22 Feb - 22:43:38 10° S 22:45:46 12° SSE 22:47:55 10° SE night (unlit)
23 Feb - 00:33:23 10° SW 00:38:05 22° S 00:42:58 10° ESE night (unlit)
23 Feb - 02:25:36 10° WSW 02:30:38 24° S 02:35:54 10° SE visible
23 Feb - 04:19:21 10° SW 04:23:11 16° SSW 04:27:09 10° SSE visible
23 Feb - 23:33:07 10° SSW 23:37:23 19° SSE 23:41:43 10° ESE night (unlit)
24 Feb - 01:24:53 10° SW 01:29:51 24° S 01:35:01 10° SE night (unlit)
24 Feb - 03:18:02 10° WSW 03:22:24 19° SSW 03:26:57 10° SSE visible
24 Feb - 22:33:10 10° SSW 22:36:42 16° SSE 22:40:16 10° SE night (unlit)
25 Feb - 00:24:16 10° SW 00:29:06 24° S 00:34:05 10° SE night (unlit)
25 Feb - 02:16:58 10° WSW 02:21:38 21° S 02:26:28 10° SE night (unlit)
25 Feb - 04:12:13 10° SW 04:14:05 11° SSW 04:15:59 10° S visible
25 Feb - 21:33:50 10° S 21:36:03 12° SSE 21:38:16 10° SE night (unlit)
25 Feb - 23:23:47 10° SW 23:28:24 22° S 23:33:04 10° ESE night (unlit)
26 Feb - 01:16:06 10° SW 01:20:53 23° S 01:25:50 10° SE night (unlit)
26 Feb - 03:10:02 10° SW 03:13:21 14° SSW 03:16:47 10° SSE visible
26 Feb - 22:23:27 10° SSW 22:27:42 19° SSE 22:31:57 10° SE night (unlit)
